Juliana Airport, Sint Maarten

1:55 PM AST on October 18, 2017 (GMT -0400)
Princess Juliana International

Weather History for TNCM - August, 2014

Change the Weather History Date:

Saturday, August 30, 2014

  Actual Average Record
Temperature  
Mean Temperature 80 °F -  
Max Temperature 85 °F 87 °F 91 °F (2001)
Min Temperature 75 °F 78 °F 75 °F (2014)
Cooling Degree Days 15    
Growing Degree Days 30 (Base 50)    
Moisture  
Dew Point 74 °F    
Average Humidity 75    
Maximum Humidity 94    
Minimum Humidity 63    
Precipitation  
Precipitation 0.59 in 0.17 in - ()
Sea Level Pressure  
Sea Level Pressure 30.04 in    
Wind  
Wind Speed 7 mph ()    
Max Wind Speed 14 mph    
Max Gust Speed -    
Visibility 7.1 miles    
Events Rain    
Averages and records for this station are not official NWS values.
T = Trace of Precipitation, MM = Missing Value Source: Averaged Metar Reports

Daily Weather History Graph

Daily Weather History Graph

Search for Another Location

Airport or City:

Trip Planner

Search our weather history database for the weather conditions in past years. The results will help you decide how hot, cold, wet, or windy it might be!

Date:

Astronomy

Aug. 30, 2014 Rise Set
Actual Time 5:57 AM AST 6:28 PM AST
Civil Twilight 5:35 AM AST 6:50 PM AST
Nautical Twilight 5:09 AM AST 7:15 PM AST
Astronomical Twilight 4:43 AM AST 7:42 PM AST
Moon 9:56 AM AST (8/30) 9:46 PM AST (8/30)
Length of Visible Light 13h 14m
Length of Day
12h 30m
Waxing Crescent, 23% of the Moon is Illuminated
Aug 30
Waxing Crescent
Sep 2
First Quarter
Sep 8
Full
Sep 15
Last Quarter
Sep 24
New

Hourly Weather History & Observations

Time (AST) Temp. Heat Index Dew Point Humidity Pressure Visibility Wind Dir Wind Speed Gust Speed Precip Events Conditions
12:00 AM 82.4 °F 89.5 °F 75.2 °F 79% 30.04 in 6.2 mi East 8.1 mph - N/A   Scattered Clouds
1:00 AM 82.4 °F 89.5 °F 75.2 °F 79% 30.04 in 6.2 mi East 8.1 mph - N/A   Scattered Clouds
2:00 AM 82 °F - 75 °F 73% 30.03 in 19 mi ESE 5.8 mph - -   Partly Cloudy
2:00 AM 82.4 °F 89.5 °F 75.2 °F 79% 30.01 in 6.2 mi ESE 5.8 mph - N/A   Scattered Clouds
3:00 AM 80.6 °F 86.2 °F 75.2 °F 84% 30.01 in 6.2 mi East 5.8 mph - N/A   Partly Cloudy
4:00 AM 82.4 °F 89.5 °F 75.2 °F 79% 30.01 in 6.2 mi East 4.6 mph - N/A   Partly Cloudy
5:00 AM 81 °F - 74 °F 75% 30.02 in 31 mi East 5.8 mph - -   Scattered Clouds
5:00 AM 80.6 °F 86.2 °F 75.2 °F 84% 30.01 in 6.2 mi East 5.8 mph - N/A   Partly Cloudy
6:00 AM 78.8 °F - 73.4 °F 83% 30.04 in 6.2 mi ESE 5.8 mph - N/A Rain Light Rain Showers
8:00 AM 77 °F - 74 °F 90% 30.08 in 2 mi 2.3 mph - -   Mostly Cloudy
8:00 AM 77.0 °F - 75.2 °F 94% 30.06 in 6.2 mi Variable 2.3 mph - N/A Rain Light Rain Showers
9:00 AM 78.8 °F - 75.2 °F 89% 30.06 in 1.2 mi Variable 1.2 mph - N/A Rain Rain Showers
10:00 AM 80.6 °F 85.4 °F 73.4 °F 79% 30.08 in 3.1 mi East 8.1 mph - N/A Rain Light Rain
11:00 AM 83 °F - 74 °F 69% 30.09 in 16 mi East 10.4 mph - - Rain Light Rain
11:00 AM 82.4 °F 89.5 °F 75.2 °F 79% 30.06 in 6.2 mi East 10.4 mph - N/A   Scattered Clouds
12:00 PM 84.2 °F 90.9 °F 73.4 °F 70% 30.06 in 6.2 mi East 11.5 mph - N/A   Scattered Clouds
1:00 PM 84.2 °F 90.9 °F 73.4 °F 70% 30.06 in 6.2 mi East 12.7 mph - N/A   Scattered Clouds
2:00 PM 85 °F - 74 °F 63% 30.05 in 22 mi East 11.5 mph - -   Partly Cloudy
2:00 PM 84.2 °F 90.9 °F 73.4 °F 70% 30.04 in 6.2 mi East 11.5 mph - N/A   Partly Cloudy
3:00 PM 86.0 °F 93.4 °F 73.4 °F 66% 30.01 in 6.2 mi East 12.7 mph - N/A   Partly Cloudy
4:00 PM 84.2 °F 90.9 °F 73.4 °F 70% 30.01 in 6.2 mi East 10.4 mph - N/A   Partly Cloudy
5:00 PM 84 °F - 73 °F 63% 30.03 in 19 mi East 13.8 mph - -   Scattered Clouds
5:00 PM 84.2 °F 90.9 °F 73.4 °F 70% 30.01 in 6.2 mi East 13.8 mph - N/A   Partly Cloudy
6:00 PM 84.2 °F 90.9 °F 73.4 °F 70% 30.04 in 6.2 mi East 11.5 mph - N/A   Partly Cloudy
7:00 PM 82.4 °F 88.2 °F 73.4 °F 74% 30.04 in 6.2 mi East 10.4 mph - N/A   Partly Cloudy
8:00 PM 82 °F - 72 °F 66% 30.05 in 22 mi East 11.5 mph - -   Scattered Clouds
8:00 PM 82.4 °F 87.2 °F 71.6 °F 70% 30.04 in 6.2 mi East 11.5 mph - N/A   Partly Cloudy
9:00 PM 82.4 °F 87.2 °F 71.6 °F 70% 30.06 in 6.2 mi East 10.4 mph - N/A   Partly Cloudy
10:00 PM 82.4 °F 88.2 °F 73.4 °F 74% 30.06 in 6.2 mi East 10.4 mph - N/A   Scattered Clouds
11:00 PM 82 °F - 72 °F 64% 30.06 in 22 mi East 12.7 mph - -   Partly Cloudy
11:00 PM 82.4 °F 87.2 °F 71.6 °F 70% 30.06 in 6.2 mi East 12.7 mph - N/A   Scattered Clouds